Canby, MN

7:29 AM CST on February 10, 2016 (GMT -0600)
Canby

Weather History for KCNB - August, 2014

Change the Weather History Date:

Tuesday, August 26, 2014

  Actual Average (KMML) Record (KMML)
Temperature  
Mean Temperature 58 °F -  
Max Temperature 69 °F 80 °F 95 °F (1955)
Min Temperature 48 °F 58 °F 44 °F (1958)
Degree Days  
Heating Degree Days 7    
Growing Degree Days 8 (Base 50)    
Moisture  
Dew Point 52 °F    
Average Humidity 77    
Maximum Humidity 93    
Minimum Humidity 57    
Precipitation  
Precipitation 0.00 in - - ()
Sea Level Pressure  
Sea Level Pressure 30.19 in    
Wind  
Wind Speed 4 mph (NNW)    
Max Wind Speed 7 mph    
Max Gust Speed -    
Visibility 10 miles    
Events      
Averages and records for this station are not official NWS values.
T = Trace of Precipitation, MM = Missing Value Source: NWS Daily Summary

Daily Weather History Graph

Daily Weather History Graph

Search for Another Location

Airport or City:

Trip Planner

Search our weather history database for the weather conditions in past years. The results will help you decide how hot, cold, wet, or windy it might be!

Date:

Astronomy

Aug. 26, 2014 Rise Set
Actual Time 6:40 AM CDT 8:12 PM CDT
Civil Twilight 6:09 AM CDT 8:42 PM CDT
Nautical Twilight 5:32 AM CDT 9:19 PM CDT
Astronomical Twilight 4:52 AM CDT 9:59 PM CDT
Moon 7:46 AM CDT (8/26) 8:28 PM CDT (8/26)
Length of Visible Light 14h 33m
Length of Day
13h 32m
New Moon, 1% of the Moon is Illuminated
Aug 26
New Moon
Sep 2
First Quarter
Sep 8
Full
Sep 15
Last Quarter
Sep 24
New

Hourly Weather History & Observations

Time (CDT) Temp. Dew Point Humidity Pressure Visibility Wind Dir Wind Speed Gust Speed Precip Events Conditions
12:14 AM 54.7 °F 51.6 °F 89% 30.16 in 10.0 mi WNW 4.6 mph - N/A   Clear
12:34 AM 53.6 °F 50.9 °F 91% 30.17 in 10.0 mi WNW 4.6 mph - N/A   Clear
12:54 AM 53.6 °F 50.5 °F 89% 30.16 in 10.0 mi NW 5.8 mph - N/A   Clear
1:13 AM 52.9 °F 50.0 °F 90% 30.16 in 10.0 mi NW 4.6 mph - N/A   Clear
1:34 AM 52.7 °F 50.0 °F 91% 30.15 in 10.0 mi NW 5.8 mph - N/A   Clear
1:54 AM 52.5 °F 49.3 °F 89% 30.14 in 10.0 mi NW 6.9 mph - N/A   Clear
2:14 AM 52.2 °F 49.1 °F 89% 30.14 in 10.0 mi NW 6.9 mph - N/A   Clear
2:34 AM 51.8 °F 48.9 °F 90% 30.15 in 10.0 mi NW 5.8 mph - N/A   Clear
2:53 AM 51.1 °F 48.2 °F 90% 30.16 in 10.0 mi WNW 5.8 mph - N/A   Clear
3:14 AM 50.4 °F 47.8 °F 91% 30.16 in 10.0 mi WNW 4.6 mph - N/A   Clear
3:33 AM 50.9 °F 47.7 °F 89% 30.18 in 10.0 mi West 3.5 mph - N/A   Clear
3:54 AM 50.4 °F 47.5 °F 90% 30.18 in 10.0 mi West 3.5 mph - N/A   Clear
4:14 AM 50.9 °F 47.8 °F 89% 30.20 in 10.0 mi WSW 4.6 mph - N/A   Clear
4:34 AM 50.2 °F 47.7 °F 91% 30.19 in 10.0 mi WNW 4.6 mph - N/A   Clear
4:53 AM 50.0 °F 47.3 °F 90% 30.20 in 10.0 mi Calm Calm - N/A   Clear
5:14 AM 50.2 °F 47.5 °F 90% 30.21 in 10.0 mi Calm Calm - N/A   Clear
5:34 AM 49.5 °F 47.3 °F 92% 30.20 in 10.0 mi West 4.6 mph - N/A   Clear
5:53 AM 48.7 °F 46.8 °F 93% 30.20 in 10.0 mi WNW 4.6 mph - N/A   Clear
6:14 AM 49.1 °F 47.1 °F 93% 30.20 in 10.0 mi West 4.6 mph - N/A   Clear
6:34 AM 49.3 °F 47.3 °F 93% 30.21 in 10.0 mi Calm Calm - N/A   Clear
6:54 AM 49.6 °F 47.5 °F 92% 30.22 in 10.0 mi SSW 4.6 mph - N/A   Clear
7:13 AM 50.0 °F 47.5 °F 91% 30.23 in 10.0 mi WSW 4.6 mph - N/A   Clear
7:34 AM 50.9 °F 48.2 °F 90% 30.23 in 10.0 mi WSW 3.5 mph - N/A   Clear
7:54 AM 51.6 °F 48.4 °F 89% 30.23 in 10.0 mi Calm Calm - N/A   Clear
8:14 AM 53.4 °F 49.3 °F 86% 30.23 in 10.0 mi SW 3.5 mph - N/A   Clear
8:33 AM 55.6 °F 50.4 °F 83% 30.25 in 10.0 mi WNW 4.6 mph - N/A   Clear
8:54 AM 57.0 °F 50.2 °F 78% 30.24 in 10.0 mi Calm Calm - N/A   Clear
9:13 AM 57.9 °F 48.0 °F 70% 30.24 in 10.0 mi Calm Calm - N/A   Clear
9:34 AM 59.0 °F 48.9 °F 69% 30.23 in 10.0 mi NE 3.5 mph - N/A   Clear
9:54 AM 59.2 °F 49.5 °F 70% 30.23 in 10.0 mi Calm Calm - N/A   Clear
10:14 AM 60.3 °F 48.9 °F 66% 30.22 in 10.0 mi ENE 3.5 mph - N/A   Clear
10:34 AM 61.0 °F 50.2 °F 68% 30.22 in 10.0 mi ENE 5.8 mph - N/A   Clear
10:54 AM 61.0 °F 50.0 °F 67% 30.22 in 10.0 mi NE 3.5 mph - N/A   Clear
11:14 AM 61.7 °F 50.2 °F 66% 30.22 in 10.0 mi NE 4.6 mph - N/A   Clear
11:34 AM 62.2 °F 50.9 °F 66% 30.22 in 10.0 mi ESE 3.5 mph - N/A   Clear
11:53 AM 63.0 °F 51.6 °F 66% 30.22 in 10.0 mi Calm Calm - N/A   Clear
12:14 PM 64.4 °F 50.9 °F 62% 30.22 in 10.0 mi Calm Calm - N/A   Clear
12:34 PM 65.3 °F 50.4 °F 58% 30.21 in 10.0 mi NNW 4.6 mph - N/A   Clear
12:54 PM 65.3 °F 52.3 °F 63% 30.20 in 10.0 mi North 6.9 mph - N/A   Clear
1:13 PM 64.8 °F 52.0 °F 63% 30.21 in 10.0 mi NNW 4.6 mph - N/A   Clear
1:34 PM 65.3 °F 52.0 °F 62% 30.22 in 10.0 mi Calm Calm - N/A   Clear
1:54 PM 67.1 °F 52.3 °F 59% 30.21 in 10.0 mi NNE 3.5 mph - N/A   Clear
2:13 PM 67.5 °F 51.8 °F 57% 30.21 in 10.0 mi Calm Calm - N/A   Clear
2:34 PM 66.9 °F 52.0 °F 59% 30.21 in 10.0 mi East 3.5 mph - N/A   Clear
2:54 PM 65.7 °F 52.2 °F 62% 30.20 in 10.0 mi NE 3.5 mph - N/A   Clear
3:14 PM 67.1 °F 53.1 °F 61% 30.19 in 10.0 mi NE 3.5 mph - N/A   Clear
3:33 PM 66.9 °F 53.8 °F 63% 30.19 in 10.0 mi Calm Calm - N/A   Clear
3:54 PM 67.3 °F 54.3 °F 63% 30.19 in 10.0 mi East 3.5 mph - N/A   Clear
4:14 PM 67.6 °F 54.3 °F 62% 30.19 in 10.0 mi Calm Calm - N/A   Clear
4:33 PM 67.6 °F 53.6 °F 61% 30.19 in 10.0 mi Calm Calm - N/A   Clear
4:54 PM 67.5 °F 54.9 °F 64% 30.19 in 10.0 mi Calm Calm - N/A   Clear
5:13 PM 68.5 °F 53.8 °F 59% 30.19 in 10.0 mi North 4.6 mph - N/A   Clear
5:34 PM 68.2 °F 54.0 °F 60% 30.18 in 10.0 mi NNE 4.6 mph - N/A   Scattered Clouds
5:54 PM 67.6 °F 54.3 °F 62% 30.18 in 10.0 mi NE 4.6 mph - N/A   Clear
6:13 PM 68.2 °F 54.9 °F 62% 30.17 in 10.0 mi NE 5.8 mph - N/A   Clear
6:34 PM 67.3 °F 54.5 °F 63% 30.17 in 10.0 mi NNE 5.8 mph - N/A   Clear
6:54 PM 66.4 °F 55.8 °F 69% 30.16 in 10.0 mi NNE 4.6 mph - N/A   Clear
7:14 PM 66.0 °F 56.3 °F 71% 30.17 in 10.0 mi NNE 3.5 mph - N/A   Scattered Clouds
7:34 PM 64.9 °F 56.7 °F 74% 30.16 in 10.0 mi NNE 4.6 mph - N/A   Scattered Clouds
7:54 PM 63.5 °F 57.2 °F 80% 30.16 in 10.0 mi NE 4.6 mph - N/A   Scattered Clouds
8:13 PM 62.6 °F 56.7 °F 81% 30.15 in 10.0 mi NE 4.6 mph - N/A   Clear
8:34 PM 61.7 °F 57.0 °F 85% 30.16 in 10.0 mi Calm Calm - N/A   Scattered Clouds
8:54 PM 61.9 °F 56.7 °F 83% 30.17 in 10.0 mi Calm Calm - N/A   Scattered Clouds
9:13 PM 61.7 °F 56.5 °F 83% 30.18 in 10.0 mi Calm Calm - N/A   Mostly Cloudy
9:34 PM 61.7 °F 56.5 °F 83% 30.18 in 10.0 mi Calm Calm - N/A   Overcast
9:54 PM 61.7 °F 56.5 °F 83% 30.18 in 10.0 mi Calm Calm - N/A   Overcast
10:14 PM 61.7 °F 57.2 °F 85% 30.19 in 10.0 mi Calm Calm - N/A   Overcast
10:33 PM 61.0 °F 57.2 °F 87% 30.20 in 10.0 mi NW 3.5 mph - N/A   Overcast
10:54 PM 60.4 °F 57.2 °F 89% 30.20 in 10.0 mi Calm Calm - N/A   Overcast
11:14 PM 60.8 °F 57.2 °F 88% 30.21 in 10.0 mi Calm Calm - N/A   Overcast
11:34 PM 60.8 °F 57.4 °F 88% 30.21 in 10.0 mi Calm Calm - N/A   Overcast